Home > Weather > Los Angeles > Past weeks

Flag for USA Weather for the Past 2 Weeks in Los Angeles, California, USA

Now
67 °F

Sunny.


Feels Like: 67 °F
Forecast: 50 / 69 °F
Wind: 6 mph from West

Location: Los Angeles / USC Campus Downtown

Current Time: Apr 29, 2016 at 3:33:00 PM

Latest Report: Apr 29, 2016 at 1:47 PM


Visibility: 10 mi

Pressure: 29.98 "Hg

Humidity: 55%

Dew Point: 50 °F

Location of Los AngelesLocation

Historic Weather in Los Angeles — Graph

°F

Los Angeles Temperature Yesterday

Maximum temperature yesterday: 69 °F (at 11:47 AM)
Minimum temperature yesterday: 55 °F (at 5:58 AM)
Average temperature yesterday: 61 °F

High & Low Weather Summary for the Past Weeks

 TemperatureHumidityPressure
High88 °F (Apr 18, 12:47 PM)83% (Apr 22, 2:47 AM)30.05 "Hg (Apr 22, 2:47 AM)
Low54 °F (Apr 26, 3:47 AM)7% (Apr 15, 10:47 PM)29.71 "Hg (Apr 27, 8:47 PM)
Average67 °F48%29.91 "Hg
* Reported Apr 14 1:47 PM — Apr 29 1:47 PM, Los Angeles, Weather by CustomWeather, © 2016

Note: Actual official high and low records may vary slightly from our data, if they occured in-between our weather recording intervals... More about our weather records

Advertising

Los Angeles Weather History for the Previous 24 Hours

Scroll right to see more
 ConditionsComfort  
Time TempWeatherWind HumidityBarometerVisibility
1:47 PM
Fri, Apr 29
67 °FSunny.6 mph55%29.98 "Hg10 mi
12:47 PM67 °FPartly sunny.No wind57%30.00 "Hg10 mi
11:47 AM68 °FScattered clouds.5 mph55%30.01 "Hg10 mi
10:47 AM66 °FPartly sunny.3 mph54%30.02 "Hg10 mi
9:47 AM63 °FPartly sunny.No wind58%30.02 "Hg10 mi
8:47 AM60 °FOvercast.3 mph65%30.02 "Hg10 mi
7:47 AM60 °FOvercast.No wind67%30.01 "Hg10 mi
6:47 AM59 °FOvercast.3 mph69%29.99 "Hg10 mi
5:47 AM58 °FPassing clouds.3 mph72%29.98 "Hg10 mi
4:47 AM58 °FOvercast.3 mph75%29.97 "Hg10 mi
3:59 AM58 °FPassing clouds.3 mph75%29.97 "Hg10 mi
2:56 AM58 °FPassing clouds.3 mph78%29.97 "Hg10 mi
2:47 AM58 °FPassing clouds.3 mph78%29.96 "Hg10 mi
1:57 AM58 °FPassing clouds.No wind78%29.98 "Hg10 mi
12:47 AM57 °FPassing clouds.No wind78%29.96 "Hg10 mi
11:47 PM
Thu, Apr 28
58 °FClear.No wind75%29.96 "Hg10 mi
10:47 PM57 °FClear.No wind78%29.95 "Hg10 mi
9:47 PM58 °FClear.No wind75%29.93 "Hg10 mi
8:47 PM58 °FClear.5 mph75%29.91 "Hg10 mi
7:47 PM59 °FSunny.3 mph72%29.88 "Hg10 mi
6:47 PM62 °FSunny.3 mph65%29.87 "Hg10 mi
5:47 PM64 °FSunny.3 mph58%29.85 "Hg10 mi
4:47 PM64 °FSunny.6 mph58%29.85 "Hg10 mi
3:47 PM66 °FSunny.N/A50%29.84 "Hg10 mi
Weather by CustomWeather, © 2016

See weather overviewHow to use our weather pages